Location: Rotheul
(50.2849°N, 11.2349°E)
Time: 12:06:20
(UTC+01:00)

Envisat - Pass Details

Date: 23 October 2019
Orbit: 764 x 766 km, 98.1° (Epoch: 22 November)

Event Time Altitude Azimuth Distance (km) Brightness Sun altitude
Rises 19:18:46 0° 170° (S) 3,221 6.2 -11.9°
Reaches altitude 10° 19:21:05 10° 172° (S) 2,299 5.4 -12.3°
Maximum altitude 19:26:08 72° 257° (WSW) 810 3.3 -13.1°
Drops below altitude 10° 19:31:14 10° 342° (NNW) 2,316 5.7 -13.9°
Sets 19:33:34 0° 345° (NNW) 3,246 6.4 -14.2°
